When you browse on this site, cookies collect data to enhance your experience and personalize the content and advertising you see.
Visit our Privacy Policy to learn more. By continuing to use the site, you agree to this use of cookies and data.
  • en Suisse
  • Liste des pays
  • À 7 jours
  • Température de l'eau
  • Carte satellitaire
  • Carte météo
  • Widgets météo
  • user-avatar
    Se connecter

    Météo par heure à Pleskachi

    Ce jour, 19 Avril, Vendredi

    Heure Température Précipitation Vent Pression Humidité
    00:00 +10°C° 0.3 mm 1 m/s 759 mmHg 72%
    01:00 +9°C° 0.3 mm 1 m/s 759 mmHg 76%
    02:00 +9°C° 0 mm 1 m/s 759 mmHg 73%
    03:00 +8°C° 0.1 mm 1 m/s 759 mmHg 76%
    04:00 +8°C° 0.1 mm 1 m/s 759 mmHg 79%
    05:00 +6°C° 0.1 mm 2 m/s 759 mmHg 82%
    06:00 +7°C° 0 mm 2 m/s 759 mmHg 76%
    07:00 +8°C° 0 mm 2 m/s 760 mmHg 71%
    08:00 +10°C° 0 mm 3 m/s 760 mmHg 65%
    09:00 +11°C° 0 mm 3 m/s 760 mmHg 58%
    10:00 +12°C° 0 mm 4 m/s 760 mmHg 50%
    11:00 +13°C° 0 mm 4 m/s 761 mmHg 43%
    12:00 +13°C° 0 mm 5 m/s 761 mmHg 42%
    13:00 +13°C° 0 mm 5 m/s 761 mmHg 42%
    14:00 +13°C° 0 mm 5 m/s 761 mmHg 42%
    15:00 +12°C° 0 mm 5 m/s 761 mmHg 42%
    16:00 +12°C° 0 mm 5 m/s 761 mmHg 43%
    17:00 +12°C° 0 mm 4 m/s 762 mmHg 44%
    18:00 +11°C° 0 mm 4 m/s 762 mmHg 48%
    19:00 +9°C° 0 mm 3 m/s 762 mmHg 53%
    20:00 +8°C° 0 mm 2 m/s 763 mmHg 57%
    21:00 +8°C° 0 mm 2 m/s 763 mmHg 58%
    22:00 +7°C° 0 mm 2 m/s 763 mmHg 59%
    23:00 +7°C° 0 mm 2 m/s 763 mmHg 61%

    Demain, 20 Avril, Samedi

    Heure Température Précipitation Vent Pression Humidité
    00:00 +6°C° 0 mm 2 m/s 763 mmHg 62%
    01:00 +7°C° 0 mm 1 m/s 763 mmHg 63%
    02:00 +7°C° 0 mm 1 m/s 763 mmHg 64%
    03:00 +6°C° 0 mm 1 m/s 763 mmHg 66%
    04:00 +5°C° 0 mm 2 m/s 763 mmHg 67%
    05:00 +5°C° 0 mm 2 m/s 763 mmHg 68%
    06:00 +6°C° 0 mm 2 m/s 763 mmHg 64%
    07:00 +9°C° 0 mm 1 m/s 763 mmHg 59%
    08:00 +10°C° 0 mm 1 m/s 763 mmHg 55%
    09:00 +10°C° 0 mm 2 m/s 763 mmHg 49%
    10:00 +12°C° 0 mm 2 m/s 762 mmHg 43%
    11:00 +13°C° 0 mm 2 m/s 762 mmHg 37%
    12:00 +14°C° 0 mm 2 m/s 762 mmHg 38%
    13:00 +14°C° 0 mm 1 m/s 762 mmHg 38%
    14:00 +14°C° 0 mm 1 m/s 761 mmHg 39%
    15:00 +13°C° 0 mm 1 m/s 761 mmHg 41%
    16:00 +13°C° 0 mm 1 m/s 761 mmHg 43%
    17:00 +13°C° 0 mm 1 m/s 761 mmHg 45%
    18:00 +12°C° 0 mm 1 m/s 761 mmHg 48%
    19:00 +11°C° 0 mm 1 m/s 761 mmHg 51%
    20:00 +9°C° 0 mm 0 m/s 761 mmHg 54%
    21:00 +10°C° 0 mm 1 m/s 761 mmHg 54%
    22:00 +10°C° 0 mm 1 m/s 760 mmHg 54%
    23:00 +10°C° 0 mm 1 m/s 760 mmHg 54%

    Après-demain, 21 Avril, Dimanche

    Heure Température Précipitation Vent Pression Humidité
    00:00 +10°C° 0 mm 1 m/s 760 mmHg 55%
    01:00 +9°C° 0 mm 2 m/s 760 mmHg 56%
    02:00 +8°C° 0 mm 2 m/s 760 mmHg 57%
    03:00 +8°C° 0 mm 2 m/s 760 mmHg 58%
    04:00 +7°C° 0 mm 2 m/s 760 mmHg 59%
    05:00 +7°C° 0 mm 2 m/s 760 mmHg 60%
    06:00 +8°C° 0 mm 2 m/s 760 mmHg 58%
    07:00 +9°C° 0 mm 2 m/s 760 mmHg 57%
    08:00 +10°C° 0 mm 2 m/s 760 mmHg 56%
    09:00 +11°C° 0 mm 3 m/s 760 mmHg 51%
    10:00 +12°C° 0 mm 3 m/s 760 mmHg 46%
    11:00 +13°C° 0 mm 3 m/s 760 mmHg 41%
    12:00 +13°C° 0 mm 4 m/s 760 mmHg 40%
    13:00 +13°C° 0 mm 4 m/s 760 mmHg 40%
    14:00 +14°C° 0 mm 4 m/s 760 mmHg 40%
    15:00 +13°C° 0 mm 4 m/s 760 mmHg 41%
    16:00 +13°C° 0 mm 4 m/s 760 mmHg 42%
    17:00 +13°C° 0 mm 4 m/s 760 mmHg 43%
    18:00 +12°C° 0 mm 3 m/s 761 mmHg 47%
    19:00 +10°C° 0 mm 3 m/s 761 mmHg 51%
    20:00 +9°C° 0 mm 3 m/s 761 mmHg 55%
    21:00 +8°C° 0 mm 2 m/s 761 mmHg 57%
    22:00 +8°C° 0 mm 2 m/s 762 mmHg 59%
    23:00 +7°C° 0 mm 2 m/s 762 mmHg 60%

    22 Avril, Lundi

    Heure Température Précipitation Vent Pression Humidité
    00:00 +7°C° 0 mm 2 m/s 762 mmHg 62%
    01:00 +7°C° 0 mm 2 m/s 762 mmHg 63%
    02:00 +6°C° 0 mm 2 m/s 762 mmHg 64%
    03:00 +6°C° 0 mm 2 m/s 762 mmHg 65%
    04:00 +6°C° 0 mm 2 m/s 762 mmHg 65%
    05:00 +6°C° 0 mm 2 m/s 762 mmHg 65%
    06:00 +8°C° 0 mm 3 m/s 763 mmHg 62%
    07:00 +9°C° 0 mm 3 m/s 763 mmHg 59%
    08:00 +11°C° 0 mm 3 m/s 763 mmHg 56%
    09:00 +12°C° 0 mm 3 m/s 763 mmHg 50%
    10:00 +13°C° 0 mm 4 m/s 763 mmHg 45%
    11:00 +14°C° 0 mm 4 m/s 764 mmHg 39%
    12:00 +14°C° 0 mm 4 m/s 764 mmHg 39%
    13:00 +14°C° 0 mm 3 m/s 763 mmHg 39%
    14:00 +14°C° 0 mm 3 m/s 763 mmHg 39%
    15:00 +14°C° 0 mm 3 m/s 763 mmHg 41%
    16:00 +14°C° 0 mm 3 m/s 763 mmHg 42%
    17:00 +14°C° 0 mm 3 m/s 763 mmHg 43%
    18:00 +12°C° 0 mm 3 m/s 763 mmHg 47%
    19:00 +12°C° 0 mm 2 m/s 764 mmHg 51%
    20:00 +10°C° 0 mm 2 m/s 764 mmHg 55%
    21:00 +10°C° 0 mm 2 m/s 764 mmHg 56%
    22:00 +9°C° 0 mm 2 m/s 764 mmHg 57%
    23:00 +9°C° 0 mm 2 m/s 765 mmHg 59%

    23 Avril, Mardi

    Heure Température Précipitation Vent Pression Humidité
    00:00 +9°C° 0 mm 2 m/s 765 mmHg 60%
    01:00 +8°C° 0 mm 2 m/s 765 mmHg 62%
    02:00 +8°C° 0 mm 2 m/s 765 mmHg 64%
    03:00 +7°C° 0 mm 2 m/s 765 mmHg 64%
    04:00 +7°C° 0 mm 2 m/s 765 mmHg 64%
    05:00 +7°C° 0 mm 2 m/s 765 mmHg 64%
    06:00 +8°C° 0 mm 2 m/s 765 mmHg 62%
    07:00 +10°C° 0 mm 2 m/s 765 mmHg 59%
    08:00 +12°C° 0 mm 2 m/s 766 mmHg 56%
    09:00 +13°C° 0 mm 2 m/s 766 mmHg 51%
    10:00 +13°C° 0 mm 3 m/s 766 mmHg 46%
    11:00 +14°C° 0 mm 3 m/s 766 mmHg 41%
    12:00 +14°C° 0 mm 3 m/s 766 mmHg 41%
    13:00 +16°C° 0 mm 3 m/s 766 mmHg 40%
    14:00 +16°C° 0 mm 3 m/s 765 mmHg 40%
    15:00 +16°C° 0 mm 3 m/s 765 mmHg 42%
    16:00 +14°C° 0 mm 3 m/s 765 mmHg 44%
    17:00 +14°C° 0 mm 3 m/s 765 mmHg 45%
    18:00 +14°C° 0 mm 2 m/s 765 mmHg 49%
    19:00 +12°C° 0 mm 2 m/s 765 mmHg 52%
    20:00 +10°C° 0 mm 2 m/s 765 mmHg 56%
    21:00 +10°C° 0 mm 2 m/s 765 mmHg 57%
    22:00 +9°C° 0 mm 2 m/s 765 mmHg 58%
    23:00 +9°C° 0 mm 2 m/s 766 mmHg 59%

    24 Avril, Mercredi

    Heure Température Précipitation Vent Pression Humidité
    00:00 +9°C° 0 mm 1 m/s 766 mmHg 59%
    01:00 +9°C° 0 mm 1 m/s 766 mmHg 60%
    02:00 +9°C° 0 mm 1 m/s 766 mmHg 61%
    03:00 +8°C° 0 mm 1 m/s 766 mmHg 62%
    04:00 +8°C° 0 mm 1 m/s 766 mmHg 63%
    05:00 +7°C° 0 mm 2 m/s 766 mmHg 63%
    06:00 +9°C° 0 mm 2 m/s 766 mmHg 61%
    07:00 +10°C° 0 mm 2 m/s 766 mmHg 58%
    08:00 +13°C° 0 mm 2 m/s 766 mmHg 55%
    09:00 +13°C° 0 mm 3 m/s 766 mmHg 50%
    10:00 +14°C° 0 mm 3 m/s 766 mmHg 45%
    11:00 +17°C° 0 mm 3 m/s 766 mmHg 40%
    12:00 +17°C° 0 mm 3 m/s 766 mmHg 39%
    13:00 +18°C° 0 mm 3 m/s 765 mmHg 38%
    14:00 +18°C° 0 mm 3 m/s 765 mmHg 37%
    15:00 +18°C° 0 mm 3 m/s 765 mmHg 39%
    16:00 +18°C° 0 mm 3 m/s 765 mmHg 40%
    17:00 +17°C° 0 mm 3 m/s 765 mmHg 42%
    18:00 +16°C° 0 mm 2 m/s 765 mmHg 46%
    19:00 +14°C° 0 mm 2 m/s 765 mmHg 50%
    20:00 +13°C° 0 mm 2 m/s 765 mmHg 54%
    21:00 +12°C° 0 mm 1 m/s 765 mmHg 55%
    22:00 +12°C° 0 mm 1 m/s 765 mmHg 56%
    23:00 +10°C° 0 mm 0 m/s 765 mmHg 56%
    Voir plus